SNUSAT-1 (42727 NORAD) Tracking and Keplerian Element Data

This shows tracking and keplerian element data for the satellite.

Feedback or suggestion? Click here.




ElementValue
Catalog42727
NameSNUSAT-1
Epoch Orbit8943
Epoch Day351.89745531
Epoch Year2018
RAAN133.6082
Inclination51.6293
Eccentricity0.0004498
Argument of Perigee201.0787
Mean Anonmoly159.0031
Mean Motion15.82664422
Decay Rate0.00060913
L11 42727U 98067MG 18351.89745531 .00060913 00000-0 28462-3 0 9996
L22 42727 51.6293 133.6082 0004498 201.0787 159.0031 15.82664422 89436

Live tracking and technical data element details for SNUSAT-1 (NORAD 42727). SNUSAT-1 can be tracked NOW for your location showing map with azimuth and elevation plus other details from your city location.

Track the satellite on the map from your city or location and see movement details for azimuth, elevation, latitude, longitude, range, height, and movement on the map or in text.







IsCatalogInMostPopularTable: catalog: 42727, numindb: 152
Update: records affected: 1



GetName: 42727 SNUSAT-1

Hit Count: updated at: Tue, 18 Dec 2018 22:03:01 GMT